RH
94 98 99 99 98 96 96 95 89 76 52 38 30 26 23 21 20 21 24 24 24 24 24 25 26 26 28 31 33 35 37 38 39 40 40 41 45 54 67 76 81 82 82 81 80 80 80 81 79 76 69 72 79 87 92 95 96 92 83 76 72 72 76 82 90 96 97 98 98 96 93 82 76 76 76 89 96 99 99 99 99 99 99 94 94 96 98 99 96 94 95 98 99 98 96 96 97 99 99 98 96 95 95
91 96 97 97 97 96 96 94 88 74 51 37 29 25 24 22 21 22 24 26 26 26 26 27 29 30 32 34 36 37 39 40 42 43 45 46 48 55 66 76 82 83 82 81 80 80 80 80 77 72 64 64 68 74 77 82 83 80 74 69 70 73 76 82 87 92 96 96 96 96 95 88 80 74 71 79 90 98 100 100 100 100 100 94 93 96 99 99 97 95 96 98 99 98 98 98 98 98 96 93 90 88 87
86 92 94 94 94 93 93 92 84 70 49 36 28 24 24 22 21 22 24 26 27 27 28 29 31 32 34 36 37 38 40 42 44 46 48 48 50 54 63 74 79 81 81 81 81 80 80 79 76 73 70 74 77 78 74 72 71 68 64 62 67 74 79 88 89 88 93 92 90 90 90 84 74 65 61 67 80 94 99 99 99 99 100 95 94 94 98 99 99 98 99 99 99 99 99 98 99 98 92 88 83 78 76
80 85 89 89 89 89 91 89 78 64 47 34 26 24 24 21 20 21 23 26 26 27 28 30 31 33 35 37 38 39 40 43 45 48 50 50 49 51 58 67 73 75 76 78 80 80 79 77 74 73 73 78 80 80 74 67 58 51 44 49 57 66 73 76 83 89 90 89 84 77 70 66 63 60 58 59 66 77 89 95 98 100 100 97 94 94 95 98 99 100 100 100 99 99 99 99 99 98 96 89 82 77 76
76 81 84 85 86 88 91 84 72 57 42 30 24 23 23 21 20 20 22 25 26 28 29 30 32 34 36 38 39 40 42 44 46 48 50 49 48 48 51 58 63 68 74 78 80 79 78 76 72 69 70 74 78 77 71 60 45 32 28 38 48 58 68 72 77 81 78 72 67 62 54 52 54 57 58 67 71 74 77 88 95 100 100 98 95 93 92 93 96 98 100 98 98 97 94 98 100 98 92 88 82 78 78
73 78 83 85 88 89 88 76 62 48 36 26 23 22 22 20 20 20 22 24 27 29 30 31 32 34 36 38 40 40 42 43 45 47 48 48 46 46 47 54 62 72 81 82 82 79 77 73 67 62 63 71 76 77 72 60 45 34 31 39 50 64 79 83 84 83 77 72 70 66 52 58 55 55 72 79 82 80 76 84 91 96 99 96 94 92 90 88 85 85 92 95 96 94 93 95 94 92 90 86 82 79 80
69 74 79 84 86 85 80 66 52 40 30 24 24 24 22 20 20 20 21 24 28 30 31 32 33 35 36 38 39 40 41 42 43 45 46 46 46 46 48 56 65 74 81 84 83 80 76 67 58 55 62 74 80 82 78 66 52 40 29 35 46 60 76 85 82 73 66 58 54 51 46 47 52 64 82 78 80 82 78 74 79 86 90 85 85 88 88 86 83 79 72 78 81 83 89 88 89 88 84 82 80 80 80
65 69 73 77 78 76 68 54 42 33 27 26 26 26 24 20 20 20 21 24 28 32 33 34 35 36 37 38 39 40 40 42 42 43 44 45 45 46 48 56 64 71 75 76 76 72 66 55 50 52 67 77 83 84 81 69 55 40 27 30 37 48 62 64 61 58 55 51 47 44 43 42 56 73 82 81 84 86 83 75 74 76 74 75 76 78 78 77 76 74 72 69 68 69 72 76 76 77 78 82 82 82 81
60 63 65 68 68 64 56 44 36 30 28 29 30 28 24 21 20 20 22 25 29 33 35 36 37 38 39 39 40 40 42 42 42 43 43 43 44 44 45 50 57 62 65 64 60 55 49 44 44 52 69 79 84 84 79 68 54 39 27 30 33 39 52 48 46 45 45 42 41 41 42 43 63 82 83 85 90 95 94 87 79 74 74 77 76 72 72 69 65 61 60 61 62 65 70 75 79 82 85 86 86 84 84
53 56 58 58 58 53 45 37 32 30 30 32 31 28 23 21 21 22 23 26 30 33 35 37 39 40 41 42 42 42 43 44 44 44 43 43 42 42 42 44 46 50 54 52 46 42 40 40 42 49 64 78 83 82 74 64 51 38 28 31 32 37 48 46 40 37 40 38 37 38 40 48 66 82 87 82 86 92 94 92 82 74 77 76 74 71 68 66 62 58 56 58 60 62 66 73 79 84 86 84 82 80 78
48 49 50 50 48 44 38 33 30 31 32 33 31 27 23 22 22 24 24 28 30 33 35 37 39 40 42 42 43 43 44 44 44 43 42 42 42 41 40 40 40 42 45 43 41 41 47 50 45 43 52 70 78 76 66 58 46 34 29 31 33 38 45 57 51 42 44 40 38 38 38 46 66 86 92 92 89 87 88 86 78 71 69 68 65 63 64 63 62 60 57 60 63 66 68 70 73 74 73 70 67 65 61
43 44 45 44 42 38 34 32 31 31 33 33 30 26 23 23 24 25 27 29 31 33 35 36 38 39 40 42 42 42 42 42 42 42 42 40 40 40 40 39 40 41 42 42 45 53 65 70 60 49 45 57 63 62 54 51 40 31 30 32 34 41 56 56 56 56 56 42 38 38 38 44 64 83 90 92 87 81 80 76 74 71 70 65 58 53 53 56 58 57 55 57 58 60 60 57 54 50 46 42 40 38 36
40 42 42 40 38 36 34 32 32 32 32 32 29 26 24 24 26 26 28 30 32 33 34 35 36 37 38 39 40 40 40 40 40 40 40 40 40 40 40 40 42 43 45 48 55 65 77 78 72 61 54 50 47 45 40 42 36 30 30 32 34 41 58 60 58 58 62 60 50 40 38 46 61 75 83 86 85 80 72 71 70 68 66 60 52 46 45 48 52 53 48 48 47 45 43 40 36 32 28 26 24 22 20
38 40 40 38 36 35 34 33 32 32 32 30 28 26 26 26 27 28 30 31 32 33 34 34 35 36 36 37 37 37 37 37 37 38 38 38 39 39 40 42 45 48 50 54 60 69 78 74 69 65 68 60 49 39 34 36 33 29 30 30 31 35 45 58 58 56 59 72 64 50 40 54 68 78 86 87 82 76 68 68 64 61 60 55 49 44 40 40 42 42 40 40 38 36 33 30 27 24 23 22 20 19 16
34 37 38 36 35 34 34 33 32 32 32 30 27 26 27 28 28 29 30 31 32 32 33 34 34 35 35 35 35 35 35 35 35 36 36 38 39 40 42 46 50 53 56 62 69 74 77 69 63 64 74 69 58 44 36 33 30 28 29 29 29 33 44 56 61 61 56 70 69 59 46 66 74 75 78 74 66 60 61 60 54 49 47 47 44 42 38 37 36 36 37 36 34 31 29 26 24 23 22 20 19 17 14
31 34 35 34 34 33 32 32 31 31 30 28 27 27 28 29 30 30 30 31 31 32 32 33 33 33 33 33 33 33 33 33 34 34 36 38 40 42 45 50 53 57 61 70 74 76 76 70 67 68 76 69 57 44 37 33 30 28 28 27 26 28 34 51 64 69 60 66 70 67 52 63 64 63 63 57 50 46 48 46 43 40 38 38 36 34 33 33 34 35 36 34 33 30 27 24 22 21 20 18 16 14 11
29 30 32 32 32 32 31 30 30 29 29 28 27 28 30 31 31 31 31 31 32 32 32 32 32 32 32 32 32 32 32 32 33 34 36 38 41 44 48 51 54 57 63 72 74 73 74 72 71 72 78 70 57 45 39 35 31 28 26 26 24 24 27 50 63 70 70 66 69 68 54 55 52 48 44 40 38 37 39 38 37 35 34 32 30 28 28 28 30 32 33 33 32 29 25 22 20 18 16 14 12 10 8
27 28 29 29 30 30 30 29 28 28 28 28 28 29 31 32 32 32 32 33 33 33 34 33 33 33 33 32 32 32 33 33 33 34 36 38 41 44 48 49 51 55 64 72 74 72 72 71 69 70 74 68 57 47 42 38 32 28 26 24 23 24 33 47 60 67 68 69 66 60 55 50 43 38 36 35 35 35 36 36 34 32 30 28 26 24 22 22 24 26 28 28 27 26 22 18 16 14 12 10 9 8 7
26 26 27 28 28 28 28 28 28 28 28 28 29 31 32 33 34 34 35 36 36 36 36 35 35 34 34 34 34 35 35 35 36 36 36 38 40 44 46 46 48 55 66 72 72 70 68 66 64 65 70 64 55 46 44 39 33 28 26 24 22 25 38 46 56 63 63 71 63 52 50 46 40 37 35 33 32 32 31 32 30 27 26 22 20 18 16 16 17 19 21 22 21 20 17 15 12 10 10 8 8 7 7
24 25 26 26 26 26 26 27 27 28 28 30 31 32 33 34 35 36 38 38 38 38 38 37 37 36 36 37 38 38 39 39 39 38 38 40 42 44 45 46 52 61 71 71 68 64 61 58 58 60 64 59 51 44 43 38 32 28 26 23 21 24 38 44 52 57 54 58 54 47 43 39 36 34 33 30 28 26 26 24 23 21 19 16 14 12 11 11 12 13 14 15 14 14 12 11 10 8 8 8 7 7 7
24 24 24 26 26 26 26 27 28 29 30 31 32 32 34 35 37 38 40 40 40 40 40 39 38 38 40 42 42 43 45 44 42 40 40 42 43 44 45 49 58 66 71 66 62 57 53 52 53 56 58 52 45 40 38 34 30 27 24 21 20 23 34 40 47 50 45 48 46 40 36 33 30 29 27 24 22 21 20 18 17 15 14 12 10 9 8 8 8 10 10 10 10 10 9 8 8 8 8 7 7 7 6
24 24 24 25 26 26 27 28 30 31 32 33 34 34 34 36 38 40 41 42 42 42 40 40 40 40 42 46 50 54 60 53 46 42 40 42 42 44 46 53 60 65 64 60 55 51 48 48 49 51 50 44 38 33 32 30 28 26 22 18 16 19 30 40 47 50 47 44 39 33 28 26 24 22 21 19 18 16 15 14 13 12 11 10 9 8 8 8 8 8 8 8 8 8 8 8 8 8 8 7 7 7 6
24 24 24 26 26 26 28 30 31 33 36 36 35 35 36 38 40 42 42 42 42 42 41 40 40 40 42 48 58 67 77 63 52 44 42 42 43 46 50 54 58 60 58 54 48 45 43 43 44 45 42 37 31 28 28 28 26 24 20 16 13 15 24 36 44 48 49 40 32 26 22 20 19 17 16 16 15 14 13 12 11 10 10 9 8 8 8 8 7 7 7 7 7 7 7 7 8 8 8 7 7 7 6
24 24 24 26 27 28 29 31 34 36 39 38 38 38 38 40 42 43 44 44 43 42 42 42 40 40 42 51 62 73 80 68 57 49 46 46 48 50 53 54 55 55 54 48 43 40 40 39 39 39 36 32 28 26 27 26 24 21 16 13 11 13 19 30 38 42 42 34 26 21 19 18 17 15 14 13 13 12 11 10 10 10 10 8 8 8 8 7 7 7 7 7 7 7 7 7 8 7 8 7 7 7 7
24 24 24 26 28 29 31 34 37 40 43 42 41 41 42 44 46 46 46 45 45 44 44 43 42 42 45 54 62 68 70 64 58 54 53 53 53 53 53 53 53 52 51 46 42 40 40 38 37 36 34 31 28 27 26 24 21 17 12 10 10 12 20 26 30 32 28 24 22 19 18 17 16 14 13 12 12 11 10 10 10 9 8 8 8 8 8 8 7 7 7 7 7 7 7 7 7 7 7 7 7 7 7
26 26 28 30 32 33 34 38 42 46 49 48 46 48 54 54 52 51 48 47 46 46 46 44 44 44 48 55 58 60 60 58 56 55 56 56 54 53 52 52 52 51 49 46 45 44 42 40 39 38 35 32 28 26 24 22 18 14 10 10 10 11 16 21 23 22 22 21 19 18 17 16 14 14 13 12 11 10 10 9 8 8 8 8 8 8 8 8 7 7 7 7 7 8 7 7 7 7 7 7 7 7 7
31 36 42 40 40 41 42 46 50 54 58 56 55 59 73 71 64 57 52 49 48 47 47 46 46 47 50 53 55 56 54 54 54 54 56 55 54 53 52 52 51 50 48 46 45 44 43 42 40 39 37 32 28 24 22 19 16 12 10 10 10 10 12 15 16 17 18 18 18 17 16 15 14 13 12 12 11 10 9 8 8 8 8 8 8 8 8 8 8 8 8 8 8 8 8 8 7 7 7 7 7 7 7
37 49 58 57 54 52 52 57 62 65 65 65 64 68 82 85 77 66 58 54 51 50 49 48 48 49 50 52 53 53 52 52 52 53 54 53 52 52 51 51 50 48 47 46 46 45 44 44 43 42 40 34 28 23 20 18 14 12 10 10 10 10 10 12 13 14 16 16 16 16 15 14 13 13 12 11 10 10 9 8 8 8 8 8 8 8 8 8 8 8 8 8 8 8 8 8 7 7 7 7 7 7 7
41 56 69 69 67 64 61 68 74 77 70 70 69 72 84 90 86 76 68 62 58 55 53 52 52 52 50 51 51 52 51 51 51 52 52 51 50 50 50 50 51 51 50 50 50 50 49 48 47 44 40 34 28 23 19 17 14 11 10 10 10 10 10 11 12 13 14 15 15 15 14 14 13 12 12 11 10 10 9 9 8 8 8 8 8 8 8 8 8 8 8 8 8 8 8 8 7 7 7 7 7 7 7
43 54 69 73 74 72 68 72 80 84 75 72 69 72 82 89 88 82 75 69 64 60 58 56 55 54 52 51 51 51 50 51 51 51 51 50 51 52 53 56 57 58 58 56 54 53 52 50 47 42 38 33 28 23 19 16 14 11 10 9 10 10 10 10 11 12 13 14 14 14 14 13 13 12 12 11 10 10 10 10 10 10 9 9 8 8 8 8 8 8 8 8 8 8 8 8 7 7 7 7 7 7 7
47 50 62 70 73 73 70 70 76 82 78 70 67 69 76 84 85 82 77 71 67 64 62 60 58 56 55 53 52 51 50 52 52 53 52 53 54 57 60 63 65 65 62 60 57 54 52 49 46 42 38 32 28 24 19 16 13 11 10 10 10 10 10 10 11 12 12 13 13 14 13 13 13 12 12 11 11 11 11 11 10 10 10 10 10 9 8 8 8 8 8 8 8 8 8 8 8 7 7 7 7 7 7
54 50 54 62 68 70 66 65 69 73 75 68 65 65 69 77 81 80 77 72 68 66 64 62 60 57 56 55 54 53 52 53 54 56 56 57 60 62 66 69 70 69 64 61 60 57 54 50 45 40 36 32 28 24 20 16 14 12 10 10 10 10 10 10 11 12 12 12 13 13 13 13 12 12 12 12 12 12 12 12 12 11 11 10 10 10 8 8 8 8 8 8 8 8 8 8 8 8 7 7 7 7 7
60 55 52 56 60 64 62 60 61 63 67 65 63 62 64 70 74 78 78 74 69 66 64 62 60 58 57 57 56 55 54 54 56 58 60 62 64 66 69 72 73 71 66 65 64 61 58 52 46 41 36 32 28 25 22 18 14 12 11 10 10 10 10 10 11 12 12 12 12 13 13 12 12 12 12 12 12 13 13 14 13 12 11 10 10 10 9 9 8 8 8 8 8 8 8 8 8 8 8 8 7 7 7
60 58 55 53 55 58 60 57 55 55 58 60 60 60 60 64 68 74 78 76 71 67 66 64 62 60 58 58 58 57 55 56 58 60 63 65 67 69 71 73 74 72 71 70 68 65 62 56 50 44 39 34 30 27 24 19 16 13 11 10 10 10 10 10 11 11 12 12 12 12 12 12 12 12 12 12 13 13 13 13 12 12 11 11 10 10 10 10 9 8 8 8 8 8 8 8 8 8 8 8 8 8 8
57 58 57 54 54 54 57 54 51 50 52 54 55 56 57 58 63 69 76 77 74 70 68 66 64 63 61 60 59 58 56 56 59 62 65 67 69 70 72 74 74 74 74 74 72 69 67 62 56 50 44 38 33 29 26 21 17 14 12 10 10 10 10 10 11 11 12 12 12 12 12 12 11 11 11 11 12 12 12 12 11 11 10 10 10 10 10 10 10 10 9 9 8 8 8 8 8 8 8 8 8 8 8
56 56 57 56 54 53 54 52 51 50 50 50 50 51 53 56 60 65 74 78 78 75 70 68 66 65 63 62 60 58 56 57 60 63 66 68 70 71 72 74 74 75 77 76 74 73 72 69 64 57 50 42 36 32 28 23 18 14 12 11 10 10 10 10 10 11 12 12 12 12 12 11 11 10 10 10 10 10 10 10 10 10 10 10 10 10 10 10 10 10 10 10 10 9 9 8 8 8 8 8 8 8 8
60 60 60 58 56 55 54 54 54 52 51 50 49 49 51 54 58 62 69 77 80 79 74 71 68 66 64 62 60 58 56 58 60 63 66 69 70 70 72 72 73 76 79 78 77 77 77 75 71 65 57 49 42 36 31 26 20 16 13 12 11 10 10 10 10 11 12 12 12 12 11 11 10 10 10 10 10 10 10 10 10 10 10 10 10 10 10 10 10 10 10 10 10 10 10 9 8 8 8 8 8 8 8
63 63 63 61 60 58 58 57 57 57 56 54 52 50 50 54 58 61 66 74 78 80 78 73 69 66 64 61 59 58 58 58 60 62 66 69 70 70 70 70 72 75 78 78 79 81 83 81 77 72 66 57 49 42 35 28 23 18 14 12 11 10 10 10 10 11 11 12 12 11 11 10 10 10 10 10 10 10 10 10 10 10 10 10 10 10 10 10 10 10 10 10 10 10 10 10 8 8 8 8 8 8 8
66 66 66 65 64 62 61 61 61 61 61 59 56 53 52 55 58 62 67 72 76 79 79 72 67 63 60 60 58 58 60 60 61 62 66 68 69 69 70 70 72 74 77 78 80 84 86 85 83 79 74 66 58 49 42 33 26 20 16 13 12 10 10 10 10 10 11 11 11 11 11 10 10 10 10 10 10 10 9 9 10 10 10 10 10 10 10 10 10 10 10 10 10 10 10 10 9 8 8 8 8 8 8
69 68 69 68 67 65 64 65 66 66 66 64 60 57 55 57 60 64 68 73 76 78 78 71 65 60 57 56 57 58 60 62 63 64 66 68 69 70 70 71 72 74 77 78 81 84 87 87 86 84 82 76 68 58 49 39 30 24 18 15 12 11 10 10 10 10 10 11 11 11 10 10 10 10 10 10 10 9 9 9 10 10 10 10 11 11 11 11 11 10 10 10 10 10 10 10 10 9 8 8 8 8 8
74 71 71 72 70 68 68 70 71 70 70 68 64 61 58 59 60 62 67 72 76 77 76 70 64 58 56 54 54 56 59 62 64 66 67 69 70 71 72 73 74 76 78 80 82 84 86 87 87 86 86 82 76 69 60 47 37 28 22 17 14 12 10 10 10 10 10 10 10 10 10 10 10 10 10 10 10 10 9 9 10 10 10 10 11 11 11 11 11 11 10 10 10 10 10 10 10 10 10 8 8 8 8
80 76 74 75 74 72 72 73 74 73 72 70 67 64 61 60 60 61 64 68 72 74 75 69 63 58 55 54 54 55 58 60 64 66 68 70 71 72 74 75 76 78 80 81 83 85 86 86 86 86 86 86 84 79 71 58 46 36 26 20 16 13 11 10 10 10 10 10 10 10 10 10 10 10 10 10 10 10 10 10 10 10 10 11 11 12 12 12 12 11 11 10 10 10 10 10 10 10 10 10 9 8 8
88 83 78 79 78 76 74 75 75 75 74 72 70 66 63 61 60 61 64 66 68 70 72 68 63 58 56 55 54 55 56 58 62 65 69 71 72 73 74 76 77 79 82 83 85 86 86 86 86 86 86 87 88 87 82 71 59 46 34 26 19 15 13 12 11 10 10 10 10 10 10 10 10 10 10 10 10 10 10 10 10 10 10 11 12 12 12 12 12 12 12 11 10 10 10 10 10 10 10 10 10 9 8
94 90 85 82 81 80 77 76 76 76 76 74 72 70 66 63 62 63 64 65 66 67 68 66 63 60 57 55 54 53 53 55 58 63 68 71 73 74 75 76 77 80 82 84 86 87 86 86 85 85 85 87 90 90 89 82 72 60 45 33 24 18 14 13 12 11 10 10 10 10 10 10 10 10 10 10 10 10 10 10 10 10 11 11 12 12 12 13 13 12 12 11 11 10 10 10 10 10 10 10 10 10 9
96 95 92 87 84 82 80 77 77 77 77 76 74 72 69 66 65 64 64 64 64 64 65 65 64 61 59 56 54 52 51 52 56 60 66 70 73 74 76 76 78 80 82 85 87 88 87 85 85 84 85 86 89 91 92 90 82 72 58 44 32 23 17 15 13 12 11 10 10 10 10 10 10 10 10 10 10 10 10 10 10 11 11 11 12 12 13 13 14 13 13 12 11 11 10 10 10 10 10 10 10 10 10
98 97 96 92 88 84 81 78 77 77 78 77 76 74 71 68 66 65 64 63 62 62 63 63 63 63 63 61 58 56 54 54 56 60 66 71 74 75 76 76 78 80 81 85 87 89 88 86 85 85 85 86 88 90 92 92 88 80 71 58 43 30 21 17 14 13 12 11 11 10 10 10 10 10 10 10 10 10 10 10 11 11 11 12 12 13 14 14 14 14 13 12 12 11 11 10 10 10 10 10 10 10 10
98 98 98 96 92 88 84 81 79 78 78 77 76 74 72 70 68 66 65 64 62 62 62 63 64 64 65 67 66 63 60 59 60 62 67 72 74 76 76 76 77 79 81 84 88 89 88 87 86 86 86 86 87 89 90 90 90 87 82 70 56 41 28 20 16 14 13 12 11 11 10 10 10 10 10 10 10 10 11 11 11 11 11 12 12 13 14 15 15 15 14 13 12 12 11 10 10 10 10 10 10 10 10
98 98 97 96 94 92 88 84 81 80 78 77 76 74 72 70 69 68 66 65 64 63 62 64 64 65 67 70 70 68 65 63 62 63 67 72 74 76 77 78 78 79 81 85 88 90 90 89 88 88 88 88 88 88 88 89 89 89 87 78 67 53 38 26 19 15 14 13 12 11 11 11 11 11 11 10 10 11 11 11 11 11 12 12 12 13 14 15 15 15 14 14 13 12 11 10 10 10 10 10 10 10 10
98 98 97 96 96 94 92 87 84 82 80 78 77 76 74 73 72 71 70 68 66 65 64 65 65 65 66 69 70 69 68 66 64 63 66 70 72 73 74 76 78 80 82 86 89 92 92 90 90 90 89 89 88 88 87 87 88 88 88 84 77 66 50 35 24 17 14 14 13 12 12 12 12 11 11 11 11 11 11 11 12 12 12 12 12 13 14 16 16 16 15 14 13 12 11 10 10 10 10 10 10 10 10
99 99 98 97 97 96 94 91 87 84 82 81 79 78 77 76 76 76 74 73 71 69 68 68 67 65 64 65 67 68 67 66 63 62 66 67 68 68 67 68 71 76 80 85 90 92 94 92 92 90 90 90 90 89 87 86 86 87 88 88 84 77 63 45 31 21 16 14 13 13 12 12 12 12 12 12 12 12 12 12 12 12 12 12 13 14 15 16 16 16 16 15 14 12 12 11 10 10 10 10 10 10 10
100 100 99 99 98 96 95 93 90 87 85 83 82 81 81 81 81 80 79 77 76 74 72 71 70 67 64 64 64 64 65 63 60 58 62 62 64 65 65 66 68 71 77 82 87 90 94 93 92 91 90 90 90 89 88 86 85 86 86 88 88 84 74 57 40 27 18 15 14 14 13 13 13 13 13 12 12 12 13 12 12 12 12 13 13 14 15 16 17 17 16 16 14 14 12 12 11 10 10 10 10 10 10
100 100 100 99 99 98 97 95 93 90 88 86 84 84 84 84 84 84 83 81 79 76 74 72 71 69 67 65 64 62 63 62 58 54 54 57 60 63 65 67 69 71 74 77 80 83 85 87 86 85 85 85 85 85 84 83 82 82 82 85 86 85 78 64 48 34 23 18 15 14 14 14 14 13 13 13 13 14 14 14 14 14 14 14 14 14 16 17 18 18 18 16 16 14 14 12 12 11 10 10 10 10 10
99 100 100 100 100 99 98 98 96 93 90 88 86 85 85 86 86 86 86 84 82 79 77 74 72 69 68 66 65 63 62 60 56 53 51 56 60 64 68 70 71 72 72 73 74 74 72 72 71 70 70 71 72 72 72 72 72 72 74 76 77 76 70 60 49 37 27 21 17 15 15 15 14 14 14 14 14 14 14 14 14 15 15 15 15 15 16 18 19 19 18 18 17 16 14 13 12 11 10 10 10 10 10
95 98 100 100 100 100 100 99 97 95 93 91 89 87 86 86 87 88 88 87 84 81 78 76 74 71 68 66 64 62 60 58 56 54 55 58 61 65 68 70 71 72 73 73 70 67 65 64 63 62 60 60 59 60 60 60 61 62 63 64 64 62 58 52 44 37 29 24 19 17 16 16 16 16 15 15 15 15 15 15 15 15 15 15 16 17 18 19 20 20 20 19 18 17 16 14 13 12 11 11 11 11 11
90 96 99 100 100 100 100 100 99 97 95 94 92 90 88 88 88 89 90 89 87 84 80 78 76 74 71 67 64 60 58 58 57 56 58 59 61 63 66 69 71 74 78 76 74 70 66 65 63 62 60 58 56 56 56 56 57 58 58 58 56 53 49 45 40 36 30 26 22 19 18 17 17 17 16 16 16 16 16 16 16 16 16 16 16 17 18 20 20 21 20 20 19 18 16 15 13 12 11 11 11 11 12
86 91 96 98 99 100 100 100 99 98 97 96 95 93 92 90 90 90 92 92 90 87 83 80 78 76 74 70 67 63 60 58 58 59 60 61 62 64 66 68 72 76 77 76 76 73 70 68 66 65 62 60 58 58 58 58 58 58 57 54 52 48 44 41 38 34 30 27 24 22 20 19 18 18 18 18 17 17 17 17 17 17 17 17 17 18 19 20 21 21 21 21 20 19 17 15 13 12 11 11 12 12 12
84 87 91 95 98 99 100 100 100 99 99 99 98 96 94 93 92 93 94 94 92 90 86 83 80 78 76 74 71 68 64 62 62 62 62 64 65 67 69 70 70 70 70 70 71 71 72 72 68 64 61 60 59 60 60 58 57 55 52 49 46 43 41 39 36 34 31 28 26 24 22 21 20 19 19 19 18 18 18 18 18 18 18 18 18 19 20 20 21 22 22 22 21 19 17 15 14 12 12 12 12 12 12
84 85 86 89 93 97 100 100 100 100 100 100 99 98 96 95 94 94 94 95 94 93 90 86 83 80 79 77 74 72 69 66 65 66 67 67 68 70 72 72 73 72 70 69 67 67 68 71 69 66 62 60 58 58 57 53 50 47 44 42 41 40 40 39 38 36 33 30 27 25 24 22 21 21 20 20 20 20 20 20 20 20 20 20 20 20 21 21 22 22 22 22 21 20 18 16 15 14 13 12 12 12 12
85 86 86 87 90 94 98 99 99 100 100 100 100 99 98 96 94 92 92 94 96 95 92 88 85 82 81 79 76 74 74 71 70 69 69 70 71 72 73 74 74 74 74 73 71 68 66 67 68 66 61 58 56 54 52 48 44 41 40 40 40 40 40 40 39 37 34 31 28 26 26 24 23 22 22 21 21 21 22 22 22 21 21 21 21 21 22 22 22 22 23 22 22 20 19 17 15 14 13 13 13 13 13
86 86 88 88 89 92 95 97 98 99 99 100 100 99 97 95 92 88 89 93 96 97 94 90 87 85 83 81 79 77 76 75 74 73 72 72 73 74 74 74 75 76 76 77 77 74 71 67 65 64 60 58 54 50 49 46 43 40 38 38 39 40 40 40 40 37 34 31 29 27 26 26 24 24 23 23 23 23 23 23 23 23 23 23 23 23 22 23 23 23 23 22 21 20 18 17 15 14 13 13 13 13 13
88 88 88 88 89 90 92 96 98 98 98 99 99 98 96 94 90 86 86 90 95 97 96 92 88 86 84 83 81 80 78 78 77 76 75 74 74 76 76 76 76 77 78 81 82 81 78 73 68 65 62 60 55 51 48 47 46 43 40 40 40 41 42 42 40 38 34 30 28 28 27 27 26 24 24 24 24 24 24 24 24 24 24 24 24 24 24 24 24 24 24 22 21 20 18 16 14 14 13 13 13 13 13
Wind_Speed
17 17 16 15 13 10 8 6 5 5 6 8 8 9 10 11 13 13 13 13 13 13 14 14 15 15 15 15 16 16 16 17 17 18 18 19 20 21 22 22 22 22 22 20 19 17 15 13 10 8 9 10 10 9 8 6 5 5 5 5 5 4 5 6 7 8 9 9 8 6 7 9 10 10 10 10 11 12 14 13 11 9 7 7 9 13 15 12 10 10 13 16 15 11 7 7 7 7 9 11 12 12 12
15 16 15 15 13 10 7 5 3 3 5 6 7 7 8 10 12 12 12 13 13 13 13 14 14 14 14 14 15 15 16 16 16 17 17 18 19 20 20 21 21 22 21 20 19 17 15 12 9 8 8 9 8 6 5 4 3 2 3 5 6 6 7 6 6 6 7 7 6 5 6 7 8 9 9 9 10 12 15 15 13 10 8 7 8 12 15 13 13 13 13 14 12 10 9 9 7 5 6 8 9 10 10
14 15 14 13 12 9 6 4 3 2 4 5 6 6 7 9 10 11 11 11 12 12 12 13 13 13 13 13 14 14 14 15 15 15 16 16 17 18 19 19 20 21 21 20 19 17 14 10 9 10 11 10 8 6 4 3 2 1 2 4 5 7 7 7 7 6 7 6 5 5 5 6 6 7 8 8 9 9 11 12 11 10 10 8 8 10 12 13 13 13 12 10 8 8 8 7 6 5 4 5 6 7 8
13 14 13 13 11 9 7 5 3 2 3 4 5 6 6 8 9 10 10 10 11 11 11 12 12 12 12 12 12 13 13 14 14 14 14 15 16 17 17 18 18 18 18 18 17 16 13 10 10 11 11 11 9 6 4 3 3 3 3 4 5 6 6 6 7 7 7 6 6 6 6 6 6 6 6 7 6 6 6 8 9 9 9 7 7 8 10 12 13 12 11 9 8 8 7 5 4 3 3 4 5 7 7
12 13 13 12 11 9 7 5 3 2 3 4 5 5 6 7 8 9 9 9 9 10 10 11 11 11 11 11 11 12 12 13 13 13 13 13 14 15 17 17 17 16 17 16 16 14 11 9 9 11 11 10 8 6 4 4 5 6 5 5 5 5 6 6 6 7 7 6 6 6 7 7 6 6 5 6 6 5 5 6 7 8 8 7 5 5 6 8 9 10 9 7 6 4 3 3 2 1 2 4 5 6 7
11 11 11 11 10 9 7 5 3 3 3 4 5 5 5 6 7 8 8 8 9 9 9 10 10 11 10 10 11 11 11 12 12 12 12 12 13 14 16 16 16 16 16 16 15 13 10 9 9 11 12 11 8 6 4 4 5 6 7 7 7 7 7 7 7 7 7 7 7 7 7 7 6 5 6 6 7 6 5 5 5 6 6 6 5 4 3 4 4 5 5 4 3 1 1 1 2 3 4 4 5 5 5
11 10 10 10 10 9 7 5 4 3 4 4 4 4 5 6 7 7 8 8 8 8 9 9 10 10 10 10 10 10 10 11 11 11 11 11 12 13 14 15 15 15 15 15 14 12 10 9 10 12 12 11 9 7 5 4 5 6 7 8 8 8 7 7 6 6 6 6 7 7 7 7 6 5 5 6 7 6 5 4 4 4 4 4 4 4 3 2 2 2 2 2 2 2 3 4 5 6 6 5 5 6 5
11 10 10 10 9 8 7 5 4 4 5 4 4 4 5 6 7 7 7 7 7 7 8 9 9 9 9 9 9 9 10 10 10 10 10 11 11 12 13 13 13 13 13 12 12 11 10 10 11 12 13 12 10 7 4 3 4 6 7 8 8 7 6 5 5 5 5 6 7 7 7 6 5 4 3 4 5 6 5 3 3 3 3 4 3 3 2 1 2 2 3 3 3 3 3 4 5 6 6 6 6 6 6
12 11 11 10 9 8 7 6 5 5 5 4 4 4 4 5 6 7 7 7 7 7 7 8 8 9 9 9 9 9 9 9 10 10 10 10 11 11 11 11 11 11 10 9 9 10 11 10 11 12 13 11 9 6 3 2 4 6 7 7 7 7 6 5 5 6 6 7 7 7 7 6 5 4 4 4 5 5 4 3 2 2 2 3 2 1 1 2 3 4 4 4 4 4 4 4 4 4 5 6 6 7 7
12 12 12 11 10 8 7 6 5 5 5 4 4 4 4 5 6 7 8 8 7 7 7 8 8 8 8 8 8 8 9 9 9 10 10 10 10 11 11 11 10 10 9 9 9 10 11 10 10 11 12 10 7 4 2 2 4 5 6 7 7 7 6 6 6 7 7 7 7 7 6 5 5 5 4 4 5 6 5 3 2 1 1 1 1 2 2 3 3 4 4 4 5 5 4 4 4 4 5 5 6 6 7
12 12 12 11 10 9 7 7 6 5 4 4 4 4 4 5 6 7 8 8 7 7 7 8 8 8 8 8 8 8 8 8 9 9 10 10 10 11 11 11 10 10 10 9 10 10 11 9 7 8 9 8 6 4 2 2 4 5 6 7 7 7 7 6 7 7 7 7 7 7 6 5 5 5 5 5 6 6 5 3 3 3 3 2 2 2 3 3 3 3 3 4 4 5 5 5 5 6 6 6 7 7 7
11 11 11 11 10 9 8 7 6 5 4 4 3 3 4 5 6 7 7 8 8 8 8 8 8 8 8 8 8 8 8 8 8 8 9 10 10 10 11 11 11 11 10 10 10 10 10 8 5 4 5 6 5 3 1 2 4 5 6 7 8 7 6 7 7 7 6 7 7 6 6 5 5 5 4 4 4 4 4 4 5 5 5 5 4 4 4 4 4 4 4 5 5 5 6 6 6 7 7 7 7 7 7
11 11 10 10 9 9 8 7 6 5 5 4 3 3 4 5 6 7 7 8 8 8 8 8 8 8 8 8 8 7 7 7 7 8 8 9 10 10 10 11 11 11 10 10 10 10 10 7 4 3 2 2 3 2 1 2 3 5 6 7 7 7 6 6 6 6 6 6 6 6 5 5 6 5 4 3 2 2 2 3 3 3 4 5 5 5 5 5 5 5 5 5 6 6 6 6 7 7 7 7 7 7 7
10 10 10 9 9 8 7 7 6 5 5 4 4 4 5 6 7 7 8 8 8 8 8 9 9 9 8 8 8 8 7 7 7 7 8 9 9 10 10 11 11 11 10 10 10 9 7 4 3 2 2 1 2 1 1 3 3 5 6 7 7 6 5 5 5 6 6 5 5 5 5 5 6 5 4 3 2 2 2 3 3 4 5 5 6 6 6 6 6 6 6 6 6 6 6 6 6 7 7 7 7 7 7
9 9 9 8 8 7 7 6 6 5 5 4 4 4 5 6 7 7 8 8 8 8 9 9 9 9 9 8 8 8 7 7 7 7 8 8 9 10 11 11 11 11 10 10 10 8 4 2 1 2 1 2 3 2 2 3 4 5 6 7 7 7 5 5 5 5 5 5 5 5 5 7 6 5 3 2 1 2 3 3 4 5 5 6 6 6 6 6 6 6 6 6 6 6 6 6 6 7 7 7 7 7 7
9 9 9 8 8 7 7 6 5 5 4 4 5 5 6 7 7 8 8 8 8 9 9 9 9 9 8 8 8 8 7 7 7 7 8 8 9 10 10 11 11 10 10 11 10 6 2 1 1 1 1 3 4 3 3 3 4 5 6 7 7 7 5 4 4 3 4 4 4 5 5 5 4 3 1 1 2 3 4 4 5 6 6 6 6 6 6 6 6 6 7 7 7 7 6 6 7 7 7 7 7 7 7
9 9 9 8 8 7 7 6 5 5 5 5 5 6 7 7 8 8 8 9 9 9 8 8 8 8 8 8 8 7 7 7 7 7 8 8 9 10 10 10 10 9 10 10 8 4 1 1 2 1 1 4 5 4 3 3 4 6 7 8 8 6 4 3 2 2 2 2 3 3 2 2 1 1 2 3 4 5 5 5 6 6 6 6 6 6 6 6 6 6 6 6 6 7 7 7 7 7 7 6 6 6 6
10 9 9 8 8 7 7 6 6 5 5 5 6 6 7 8 9 9 9 9 8 8 8 8 8 8 8 8 7 7 7 7 7 7 7 8 9 9 10 10 9 9 9 8 6 4 3 2 2 1 2 5 6 4 3 3 5 6 8 8 8 6 3 2 1 1 1 1 1 2 2 1 2 3 3 4 5 5 5 6 6 6 6 6 6 6 6 6 5 5 5 5 6 6 7 7 6 6 6 6 6 6 6
10 10 9 9 9 8 8 7 6 6 5 6 6 7 8 9 9 9 9 8 8 8 8 8 8 8 8 8 8 8 8 7 7 7 7 8 8 9 9 9 9 8 8 6 5 5 4 3 2 1 2 5 6 4 3 4 5 7 9 9 8 6 3 1 1 1 0 1 1 2 2 2 2 3 4 4 4 5 5 6 6 6 6 6 6 6 5 5 5 4 4 4 5 5 6 6 6 6 6 6 6 6 6
10 10 10 10 9 9 8 8 7 6 6 6 6 7 8 9 9 9 9 8 8 7 7 7 7 8 8 8 8 8 8 7 6 6 6 7 8 8 8 8 8 7 5 4 5 5 5 4 3 2 3 6 6 5 4 5 7 9 10 10 8 6 2 0 1 2 2 2 2 2 3 3 4 4 4 4 4 4 5 5 5 5 5 5 5 5 5 5 4 4 3 3 4 4 5 5 6 6 6 6 6 6 6
10 10 10 10 10 10 9 8 8 7 6 6 7 8 9 9 9 9 8 8 7 7 7 7 7 7 8 8 8 7 6 5 5 5 5 6 7 7 7 8 8 7 5 6 6 6 5 4 3 3 4 7 7 5 5 6 8 9 10 9 8 5 3 1 1 1 2 2 2 3 3 4 4 5 5 5 4 4 4 4 4 5 5 5 5 5 5 4 4 3 3 3 3 4 4 5 5 6 6 6 6 6 6
10 10 11 11 11 10 10 9 8 8 7 8 8 9 9 8 8 8 8 8 7 7 7 7 7 7 7 7 7 6 3 2 2 3 4 5 5 5 5 6 6 6 6 7 6 5 4 3 3 4 7 8 8 6 6 8 9 10 10 9 7 5 3 2 1 1 2 2 3 3 3 4 4 4 4 4 4 4 4 4 4 4 4 4 4 4 4 4 3 3 3 3 3 3 4 4 5 5 6 6 6 6 6
10 11 11 11 11 11 10 10 9 9 9 9 9 9 9 8 8 8 8 8 8 7 7 7 7 8 8 8 8 7 4 3 2 1 2 3 3 3 3 3 3 4 5 6 5 4 3 3 3 5 8 9 8 7 7 8 9 9 9 8 7 5 3 2 2 1 2 2 3 3 4 4 4 4 4 4 4 4 4 4 4 4 4 4 4 4 4 4 3 3 3 3 3 3 4 4 5 5 6 6 6 6 6
11 11 11 11 11 11 10 10 10 10 9 10 10 10 10 9 8 8 8 8 8 8 7 7 8 8 8 8 9 8 7 6 4 2 1 1 1 0 1 1 2 3 5 5 4 3 3 3 4 6 9 10 9 8 8 8 9 9 8 7 6 4 3 2 2 2 3 3 4 4 4 5 4 4 4 3 3 3 4 4 4 4 4 4 4 4 4 3 3 3 3 3 3 3 4 4 5 5 6 6 6 6 6
12 12 12 11 11 10 10 10 10 10 10 10 10 10 11 10 9 8 8 8 8 8 8 8 8 8 8 9 9 9 9 7 5 3 2 1 1 2 2 3 3 4 6 5 4 3 3 3 4 7 10 10 9 8 7 8 8 8 7 6 5 4 3 3 3 4 4 4 5 5 5 4 4 4 3 3 3 3 3 4 4 4 4 4 4 4 3 3 3 3 3 3 3 4 4 5 5 5 5 6 6 6 6
12 12 11 11 10 9 10 10 10 9 9 9 9 9 8 9 9 9 9 9 9 9 8 8 8 8 10 10 10 10 10 8 7 5 4 4 4 5 5 5 5 6 7 6 4 3 3 4 5 7 10 10 9 7 7 7 7 7 6 6 5 4 3 3 3 4 4 5 5 5 4 4 4 4 3 3 3 3 3 3 3 3 3 3 3 3 3 3 3 3 3 3 4 4 4 5 5 5 5 5 6 6 6
12 10 9 9 8 8 8 8 8 8 8 8 9 8 6 7 8 9 9 9 9 9 8 8 8 9 11 12 11 11 11 10 9 8 8 8 7 7 7 7 7 8 7 6 5 4 4 5 5 7 10 10 9 7 6 6 6 6 6 5 4 4 4 4 4 4 4 5 5 4 4 4 3 3 3 3 3 3 3 3 3 3 3 3 3 3 3 3 3 3 3 4 4 4 4 5 5 5 5 5 5 6 6
11 9 7 7 8 8 7 7 7 7 8 8 9 9 9 8 9 9 9 8 8 8 8 8 8 9 11 12 12 12 12 11 11 10 10 10 10 9 9 8 8 8 7 6 5 5 5 5 5 7 9 11 10 8 6 6 6 6 5 5 4 4 4 4 4 4 4 4 4 4 4 4 3 3 3 3 3 3 3 2 2 2 2 2 2 3 3 3 3 4 4 4 4 4 4 5 5 5 5 5 5 6 6
12 10 8 8 9 9 8 7 7 8 9 9 9 10 12 11 12 11 10 9 8 8 8 8 8 10 11 13 13 13 12 12 12 12 12 11 10 10 9 9 9 8 8 7 6 6 5 5 5 6 9 11 11 9 7 6 6 6 5 5 4 4 4 4 4 4 4 4 4 4 4 4 3 3 3 3 3 3 2 2 2 1 1 2 2 3 3 3 4 4 4 4 4 4 4 5 5 5 5 5 5 5 6
14 13 12 11 11 11 11 10 10 11 12 11 11 12 14 14 14 13 12 11 10 9 9 9 9 10 12 13 13 13 13 13 12 12 12 11 10 10 9 9 9 8 8 7 7 6 6 6 6 6 9 12 12 11 8 6 6 5 5 5 4 4 4 4 4 4 4 4 4 4 4 4 4 3 3 3 3 3 2 2 1 1 1 2 2 3 3 4 4 4 4 4 4 4 4 4 4 5 5 5 5 5 5
16 16 15 15 14 14 14 13 13 14 15 13 12 13 14 15 15 15 14 13 12 11 11 11 11 12 12 13 13 13 13 13 13 12 12 11 10 10 10 9 9 9 9 8 7 6 6 6 6 7 8 11 13 12 9 7 6 5 5 5 4 4 4 4 4 4 4 4 4 4 4 4 4 4 4 4 3 3 2 2 2 2 2 2 3 3 4 4 4 4 4 4 4 4 4 4 4 4 5 5 5 5 5
18 18 18 17 17 16 16 16 16 17 17 16 14 14 15 16 16 15 15 14 13 13 13 13 13 13 13 13 13 14 13 13 13 12 12 11 11 11 10 10 10 10 9 8 7 6 6 6 7 7 8 10 12 13 10 8 6 5 5 5 5 4 4 4 4 4 4 4 4 4 4 4 4 4 4 4 3 3 2 2 2 2 3 3 4 4 4 4 5 4 4 4 4 4 4 4 4 4 4 5 5 5 5
19 19 20 19 19 18 18 18 18 18 19 18 17 16 16 16 16 16 15 15 14 14 14 14 14 14 13 14 14 14 14 13 13 13 12 12 11 11 11 11 11 11 10 8 7 7 7 7 7 7 8 10 12 13 12 9 6 5 4 5 5 5 5 5 5 4 4 4 4 5 5 5 4 4 4 4 3 3 2 2 2 3 3 4 4 5 5 5 5 5 5 5 4 4 4 4 4 4 4 4 5 5 5
21 21 21 21 20 20 20 19 19 19 20 19 19 18 17 17 17 16 16 16 15 15 14 15 15 15 14 15 15 16 15 14 13 13 13 13 12 12 12 12 12 11 10 9 8 8 7 8 8 8 8 9 11 13 13 11 8 5 5 5 6 6 6 5 5 5 5 5 5 5 5 5 5 5 4 4 3 3 3 2 2 3 3 4 4 5 5 5 5 6 6 5 5 5 4 4 4 4 4 4 4 5 5
22 22 21 21 21 21 21 20 20 20 20 20 20 19 19 18 17 17 17 17 16 16 15 16 16 16 16 16 17 17 16 14 14 14 14 14 13 13 13 13 12 11 10 10 10 9 8 8 8 8 8 8 10 12 14 12 9 7 6 6 6 7 7 6 6 6 5 5 5 5 5 5 5 5 5 4 4 3 3 3 3 3 3 4 4 5 5 5 5 6 6 6 6 6 5 4 4 4 4 4 5 5 5
22 22 22 21 21 21 21 21 21 21 20 20 20 20 19 19 18 17 17 17 17 17 16 17 17 18 18 18 18 18 17 15 15 15 15 15 15 14 14 14 13 12 11 11 10 9 9 9 9 8 8 8 9 11 13 13 11 9 7 7 7 7 7 7 7 6 6 6 6 6 6 6 6 5 5 5 4 4 4 4 3 3 4 4 5 5 5 5 6 6 6 7 7 7 6 6 5 4 4 5 5 5 5
22 22 22 21 21 21 21 21 21 21 21 20 20 20 20 19 19 18 18 18 18 17 17 18 18 19 20 20 20 19 18 17 16 16 16 16 16 16 15 15 14 12 12 12 11 10 9 10 10 9 9 8 9 11 12 13 12 10 9 8 8 8 8 8 8 7 7 6 6 6 6 6 6 6 6 5 5 5 5 4 4 4 4 4 5 5 6 6 6 6 6 7 7 8 8 7 6 5 5 5 5 5 6
21 21 21 21 21 21 21 21 21 21 20 21 21 20 20 20 19 19 19 19 19 18 19 19 19 20 21 21 20 20 19 18 17 17 17 17 17 17 16 16 15 13 13 12 11 10 10 11 11 10 9 9 10 10 12 12 12 12 10 9 9 9 9 9 8 8 7 7 7 7 7 7 6 6 6 6 6 6 6 5 5 5 5 5 5 5 6 6 6 6 7 7 7 8 8 8 8 7 6 6 6 6 6
20 21 21 21 21 21 20 20 20 20 20 20 21 21 20 20 20 20 20 19 19 20 20 20 21 21 21 21 21 20 20 19 18 18 18 18 18 18 17 17 16 15 14 13 12 11 11 12 12 11 10 10 10 10 11 11 12 13 12 11 10 10 10 9 9 8 8 8 8 7 7 7 7 7 7 7 7 7 6 6 6 5 5 5 5 6 6 6 7 7 7 7 8 8 9 9 9 8 8 7 7 7 7
20 21 21 21 21 21 20 20 20 20 20 20 21 21 21 20 20 20 21 20 20 21 21 22 22 22 22 22 21 21 21 20 19 19 19 20 20 19 18 18 17 16 15 14 13 12 12 13 13 12 12 11 11 10 10 11 12 13 13 13 12 11 11 10 9 9 8 8 8 8 8 8 8 8 8 8 8 8 7 7 7 6 6 6 6 6 6 7 7 7 7 8 8 9 9 10 10 10 9 9 8 8 7
20 21 21 21 21 20 20 20 20 20 20 21 21 21 21 21 21 21 21 21 21 22 23 23 23 23 23 22 22 22 21 21 20 20 20 21 21 20 20 19 18 18 17 16 14 14 14 14 14 14 13 12 11 11 11 11 12 13 14 14 13 13 12 11 10 9 9 9 9 8 8 8 8 8 9 9 9 9 8 8 8 7 7 6 6 6 7 7 7 7 7 8 8 9 10 10 11 11 11 10 10 9 9
20 20 21 21 21 20 20 20 20 20 21 21 21 22 22 22 22 22 22 22 22 23 23 24 25 24 23 23 22 22 22 22 21 21 22 22 22 22 21 21 20 19 18 17 16 15 15 15 15 15 14 13 12 12 12 12 13 13 14 14 14 14 14 13 12 10 9 9 9 9 9 9 9 9 9 9 9 9 9 9 8 8 7 7 7 7 7 7 7 7 8 8 8 9 10 10 11 12 12 12 12 11 10
19 20 21 21 21 21 21 20 21 21 21 21 22 22 22 22 22 22 23 23 23 23 24 25 25 25 24 23 23 23 23 23 23 23 23 23 23 23 23 22 21 20 19 18 17 17 16 16 16 16 15 14 13 13 13 14 14 14 14 14 14 14 14 14 14 13 11 10 9 8 9 9 10 10 10 10 10 10 10 10 9 9 8 8 8 8 7 7 8 8 8 8 9 9 10 10 11 12 13 13 13 12 12
19 19 20 21 21 21 21 21 21 21 22 22 22 23 23 23 22 23 23 24 24 24 24 25 26 26 25 24 24 24 24 24 24 24 24 24 24 24 24 23 22 21 20 19 18 18 18 18 17 17 16 15 15 15 15 15 15 15 15 14 14 14 14 14 15 15 14 11 9 8 9 10 10 11 11 11 11 11 11 10 10 10 9 9 8 8 8 8 8 8 8 8 9 9 10 10 11 12 13 13 13 13 13
20 20 20 21 22 22 22 22 22 22 22 22 23 23 23 23 23 23 23 24 24 24 25 25 26 26 26 25 25 24 24 24 24 25 25 25 25 25 25 25 24 23 21 20 20 19 19 19 18 18 17 16 16 16 16 17 17 16 16 15 14 14 14 14 15 16 15 14 11 9 9 10 11 11 12 12 12 12 12 11 11 10 10 10 9 9 9 9 9 9 9 9 9 10 10 10 11 12 12 13 13 13 13
21 21 21 21 22 22 23 23 23 23 23 23 23 24 24 24 23 23 24 24 24 25 25 25 26 26 26 26 25 24 24 24 24 24 25 25 25 26 26 26 25 24 23 21 21 21 20 20 19 19 18 17 17 17 18 18 18 18 18 17 15 14 14 14 15 16 16 15 13 10 10 10 11 12 12 13 13 13 12 12 12 11 11 11 10 10 9 9 9 9 9 10 10 10 10 11 11 12 12 13 13 13 13
22 22 22 22 22 22 23 23 23 24 24 24 25 25 25 25 25 24 24 24 25 25 25 26 26 27 26 25 25 24 24 24 24 24 24 25 25 26 26 27 26 26 24 22 22 22 21 21 20 19 19 18 18 19 19 20 20 20 19 18 17 16 15 15 15 16 16 16 15 12 11 11 12 13 13 13 13 13 13 13 12 12 12 11 11 11 10 10 10 10 10 10 11 11 11 11 12 12 12 12 13 13 13
23 23 23 22 22 22 23 23 23 24 25 25 26 27 27 26 25 25 24 25 25 25 25 26 27 27 27 26 25 25 25 25 25 25 24 24 25 26 27 27 27 26 25 23 23 22 22 22 21 21 20 20 20 20 20 21 21 21 21 20 19 17 16 16 16 16 17 17 16 14 12 12 12 13 14 14 14 14 14 14 13 13 13 12 12 11 11 11 10 11 11 11 11 12 12 12 12 12 12 13 13 13 13
23 23 23 23 23 23 23 23 24 24 25 26 27 27 27 26 25 25 24 24 24 25 25 26 27 28 28 27 27 26 26 26 26 26 25 25 25 26 27 27 27 26 25 24 24 24 24 23 23 22 22 21 21 21 21 22 22 22 22 21 20 19 18 17 16 16 17 17 17 16 14 13 13 14 14 14 15 15 15 15 14 14 14 13 13 13 12 11 11 11 12 12 12 12 12 13 13 13 13 13 13 13 13
24 24 24 24 24 24 24 24 24 25 26 27 27 27 26 26 25 25 25 24 24 24 25 27 28 29 29 29 29 28 27 27 28 27 27 27 27 27 27 27 27 26 26 25 25 25 25 25 25 24 24 23 23 22 22 23 23 23 23 23 22 21 20 19 18 17 17 18 18 17 15 14 14 14 15 15 15 16 16 16 15 15 15 14 14 14 13 12 12 12 13 13 13 13 13 13 13 13 13 13 13 13 13
24 25 25 25 25 25 25 24 25 25 26 27 27 27 26 26 26 26 25 25 25 25 26 27 29 30 30 30 30 30 29 30 30 30 28 29 30 29 28 27 26 26 26 26 26 26 26 26 26 26 25 25 24 24 24 24 25 25 24 24 23 22 22 20 19 19 18 18 18 17 16 15 15 15 15 15 16 16 16 16 16 16 16 15 15 15 14 13 13 13 14 14 14 13 13 14 13 13 13 14 14 14 14
25 26 26 26 26 26 26 25 25 26 26 27 27 28 28 28 27 27 27 26 26 26 27 28 30 30 31 31 31 31 31 32 33 32 31 31 30 29 27 26 24 23 25 25 25 26 26 27 27 27 26 26 25 25 25 25 25 25 25 24 24 23 23 22 21 20 19 19 19 18 17 16 16 16 16 16 16 16 17 17 17 17 17 16 16 16 15 14 14 14 15 15 15 14 14 14 14 14 14 14 14 14 14
27 27 27 27 27 27 26 26 26 26 27 28 29 29 29 29 29 28 28 27 27 27 28 29 30 31 31 31 31 32 32 34 34 34 33 31 29 27 26 24 23 22 23 21 21 24 27 27 26 26 25 24 23 23 24 24 24 24 24 23 23 23 22 22 22 21 21 20 19 18 17 17 17 17 17 17 17 17 17 17 18 18 18 17 17 17 16 15 15 15 16 15 15 15 14 14 14 14 14 14 14 14 14
29 29 28 28 28 27 27 26 26 27 27 29 29 30 30 30 30 29 29 28 28 29 30 31 31 31 32 33 33 33 33 34 35 34 34 33 31 29 27 27 26 24 22 20 18 19 24 25 23 21 21 21 20 20 21 21 21 21 21 21 21 21 21 21 21 21 21 21 20 19 18 17 17 18 18 18 18 18 18 18 19 19 19 18 18 18 17 16 16 16 16 16 15 15 14 14 14 14 14 14 15 15 15
29 29 29 29 28 27 27 27 27 27 28 29 30 30 31 31 31 30 30 30 29 30 31 32 32 33 33 34 34 34 34 35 35 35 35 34 34 33 30 28 26 23 20 19 19 20 22 22 19 16 17 18 19 19 19 19 19 19 19 19 19 20 20 21 21 22 22 21 21 20 19 19 18 18 19 19 19 19 19 19 19 19 19 19 19 19 18 18 17 17 17 16 15 15 14 14 14 14 15 15 15 15 15
28 28 29 29 28 28 27 27 27 27 28 29 30 31 31 31 31 31 30 30 29 30 31 33 34 34 34 34 35 35 35 35 35 35 35 35 35 35 33 29 24 19 17 18 21 23 22 20 17 16 18 20 19 18 19 19 18 18 18 18 18 19 19 20 21 22 22 21 21 21 21 20 20 20 19 19 19 19 20 20 20 20 20 20 20 19 19 19 19 19 18 17 16 15 15 14 15 15 15 15 15 15 15
27 27 27 28 28 28 28 28 28 28 28 29 30 31 32 32 31 31 31 30 30 31 32 34 35 35 35 35 35 36 36 37 36 35 35 36 36 36 35 34 31 27 22 21 22 23 22 22 19 17 18 21 20 18 18 18 18 18 17 18 18 18 19 20 21 21 22 22 22 21 21 22 22 22 21 20 20 20 20 21 21 21 21 20 20 20 20 21 21 21 19 18 16 16 16 15 15 15 15 15 15 15 15
27 26 26 27 27 28 29 29 30 30 30 30 30 31 32 32 32 32 32 32 31 31 32 34 35 36 37 36 36 36 37 38 37 37 36 36 36 36 36 36 36 35 33 29 26 24 22 22 22 20 18 18 19 19 18 17 18 18 17 17 17 18 18 19 20 21 21 22 22 22 22 23 23 23 23 22 21 20 20 21 21 21 21 21 21 21 22 22 22 22 20 18 18 17 16 16 15 15 15 15 15 15 15
27 27 26 26 27 27 29 30 31 31 31 31 31 32 32 33 33 33 32 32 32 31 32 33 35 37 37 38 38 38 38 39 39 38 37 37 37 37 37 37 38 37 37 35 32 29 26 24 25 24 20 17 18 20 20 18 18 18 17 17 17 17 18 18 19 20 21 22 22 22 22 23 24 24 24 23 22 21 21 21 21 21 21 21 21 22 23 23 23 22 21 20 19 18 17 16 16 15 15 15 16 16 16
27 27 27 26 27 27 28 29 31 32 32 32 32 33 34 34 33 33 32 32 32 31 31 33 34 36 37 38 38 39 39 40 40 39 39 39 39 38 37 38 38 39 38 37 35 33 31 28 27 25 22 20 19 20 20 20 19 18 17 17 17 17 17 18 19 20 21 21 21 22 23 23 24 24 24 24 23 22 22 22 21 21 21 21 22 23 23 23 23 22 21 20 19 19 18 17 16 16 16 16 16 16 17
27 27 27 27 27 27 28 29 31 32 32 32 33 34 34 34 34 33 33 33 32 32 31 31 32 34 35 37 38 39 40 40 40 40 40 40 40 39 38 38 38 39 39 38 37 35 34 31 29 27 25 24 21 19 19 20 20 19 18 18 17 17 17 17 19 20 20 21 21 22 23 24 24 24 24 24 24 23 23 23 22 22 21 22 22 23 23 23 22 22 22 21 20 19 18 17 16 16 16 17 17 17 17
Wind_Direction
139 144 147 146 141 131 122 108 84 60 54 59 64 66 68 69 72 78 83 86 87 87 88 90 93 96 97 98 99 100 101 101 101 102 102 103 104 105 105 104 102 99 96 93 91 90 88 89 98 113 119 111 108 109 111 102 91 78 62 45 41 52 71 78 78 75 74 80 84 81 69 64 63 66 76 88 84 76 76 80 83 86 88 80 76 78 82 94 103 99 90 88 89 89 83 73 69 73 78 74 70 68 68
142 147 149 149 148 144 134 119 93 64 58 64 69 70 70 70 74 81 87 89 90 90 91 93 95 97 98 99 100 101 101 101 101 101 101 103 105 107 108 107 105 101 98 95 92 90 88 90 95 103 109 110 112 120 131 130 117 81 51 42 45 55 64 69 76 79 75 73 75 70 58 59 61 64 71 88 92 86 84 87 90 93 96 98 97 92 89 96 107 111 106 97 93 91 84 78 75 77 82 73 66 62 65
143 149 153 155 156 155 148 138 120 82 68 73 78 78 75 71 75 82 89 91 92 93 94 96 98 99 99 99 100 100 100 100 100 100 101 102 105 108 110 110 108 104 101 96 92 88 87 94 97 97 100 99 99 106 126 133 121 78 47 44 49 56 63 64 66 68 69 62 58 56 54 56 58 62 68 82 93 96 92 93 91 90 95 112 121 110 95 95 102 110 113 108 104 100 94 87 77 70 63 51 41 37 39
145 150 156 159 161 160 157 155 147 109 87 90 92 89 82 76 77 83 91 94 94 95 98 99 100 101 100 100 100 100 100 99 99 99 100 101 104 108 112 114 111 106 101 96 92 89 89 97 100 100 100 96 92 91 94 90 82 74 64 53 52 54 57 55 58 64 68 67 63 57 52 50 51 56 65 77 94 110 107 99 89 83 88 110 129 124 107 97 96 99 102 109 112 110 110 108 86 58 35 19 13 12 15
147 150 155 159 160 161 164 167 162 135 114 109 105 98 90 82 81 86 93 96 98 99 101 103 103 103 102 101 100 100 100 99 99 98 99 100 103 108 113 116 113 108 101 96 94 93 96 103 106 104 102 96 91 84 77 72 72 70 64 56 51 48 46 48 55 63 67 65 60 52 44 41 42 47 61 75 88 106 125 112 94 84 85 99 115 123 120 105 99 99 101 114 122 120 116 116 99 17 349 353 355 358 5
151 152 156 159 162 165 170 175 170 151 133 122 113 104 95 87 84 88 95 100 102 102 105 106 106 106 105 103 102 101 100 99 98 97 97 99 102 108 114 118 116 110 104 101 99 100 105 112 112 107 101 93 86 80 71 67 67 65 58 53 52 51 51 52 60 65 65 61 54 43 31 34 36 46 67 79 85 93 116 129 119 102 93 94 96 103 121 122 121 121 125 136 151 181 218 272 299 307 314 328 333 339 350
155 157 160 163 166 171 176 179 174 157 140 127 115 104 94 87 86 90 98 103 106 107 109 110 110 110 109 107 105 104 102 99 98 97 97 99 103 109 116 119 118 114 111 109 109 109 111 115 114 108 99 90 85 82 74 63 59 56 50 49 51 56 58 57 57 54 46 33 23 16 11 13 26 51 75 83 85 87 99 126 130 115 103 98 97 101 112 144 168 181 192 196 209 243 264 273 283 293 303 314 319 323 331
160 162 165 168 172 176 180 180 172 157 141 127 113 100 90 86 88 95 103 108 111 113 113 114 114 114 113 112 110 107 104 102 100 98 99 101 105 111 117 121 121 120 118 117 117 116 114 116 116 110 100 91 88 89 85 61 49 45 41 41 45 50 55 47 29 13 7 2 360 358 358 7 30 57 69 85 87 86 86 105 117 111 99 93 94 105 128 182 222 241 251 255 262 274 284 286 292 299 304 308 312 316 319
163 166 169 173 176 180 182 178 169 156 142 129 114 98 88 87 92 101 109 115 118 119 119 119 119 118 117 116 114 112 109 106 103 102 102 105 108 113 117 121 123 123 121 121 119 115 112 113 115 113 105 97 95 101 108 68 45 38 32 33 35 37 34 21 7 359 353 353 356 359 1 18 45 64 68 80 89 91 86 90 102 111 106 84 85 127 244 261 267 267 268 274 280 288 296 303 308 311 309 308 310 312 314
167 168 171 174 178 180 180 176 167 157 145 132 117 101 90 92 98 107 116 124 127 127 126 125 124 123 122 121 119 116 114 111 108 106 107 109 112 115 118 120 121 121 121 119 115 109 102 101 109 115 112 107 107 118 141 81 48 36 26 26 26 25 19 11 2 355 352 358 5 9 15 42 61 67 70 80 91 95 91 88 75 54 41 46 338 296 293 295 290 284 279 287 294 299 301 306 310 311 310 310 310 310 310
171 171 173 174 176 178 177 174 169 161 150 137 121 106 99 101 107 115 124 132 135 135 133 131 130 128 127 126 124 122 120 116 113 111 111 114 116 118 119 119 119 119 120 119 111 100 90 83 91 109 117 120 128 147 159 76 46 31 23 21 18 15 12 10 3 357 357 2 11 18 24 57 78 83 83 91 101 104 98 90 72 56 55 54 26 344 332 323 318 316 316 316 315 315 314 314 314 314 313 312 311 310 309
175 175 175 176 176 176 177 175 172 165 156 143 126 112 108 111 117 125 132 138 140 141 140 138 136 134 133 131 129 128 125 122 118 116 116 118 120 122 122 120 119 119 120 116 106 93 83 75 73 91 115 134 155 175 158 58 37 24 18 17 14 12 14 5 3 3 1 0 8 18 26 66 94 102 105 106 110 109 96 84 77 69 56 46 26 6 357 346 344 345 346 339 332 328 325 322 320 319 318 317 316 315 314
180 180 179 179 178 178 179 178 175 169 159 148 134 121 118 122 128 134 138 142 144 144 144 143 141 139 137 136 134 132 129 126 123 121 120 122 123 124 124 122 121 120 119 112 100 90 84 82 77 72 89 149 192 206 76 45 27 15 14 13 11 10 11 4 0 3 9 10 11 15 26 74 106 119 123 117 110 94 70 63 53 34 17 9 2 359 356 353 356 359 352 344 340 336 333 330 328 328 328 328 328 328 329
184 184 184 183 183 183 184 184 179 172 162 151 141 133 129 132 137 141 143 145 146 147 147 146 145 143 141 139 138 136 133 130 126 124 123 124 126 126 125 124 123 121 114 103 91 83 83 92 93 77 57 277 256 266 33 33 17 7 6 6 3 1 2 2 357 357 6 21 23 24 45 85 107 117 116 111 86 47 18 0 347 337 333 336 340 343 345 347 349 350 346 344 342 341 339 339 339 340 342 344 346 348 350
184 186 187 188 187 189 190 189 184 176 166 157 149 142 138 140 145 148 149 148 149 150 149 149 148 146 144 142 140 138 135 131 128 125 125 125 126 126 127 127 125 120 108 93 80 74 75 90 94 84 69 274 280 305 16 17 5 358 358 357 356 356 1 4 360 355 358 22 35 49 74 93 100 103 107 102 25 353 347 334 329 328 327 325 327 331 334 337 339 341 341 341 342 342 343 346 349 352 355 358 360 1 4
181 184 188 189 191 192 194 194 189 181 172 165 157 150 148 150 152 153 153 152 152 152 152 151 149 147 146 143 140 137 134 131 128 126 125 125 126 126 128 129 127 119 105 88 79 75 77 66 72 82 244 267 280 305 357 0 354 351 351 351 352 355 2 9 6 356 356 25 51 67 82 94 94 90 93 349 323 323 323 320 321 322 325 324 324 325 328 333 336 337 338 339 340 341 345 349 354 358 3 6 8 9 11
177 181 185 187 190 193 195 195 191 184 177 171 163 158 156 157 158 158 157 156 155 155 155 153 151 149 146 143 139 134 130 127 126 125 125 125 125 126 128 130 128 119 104 91 89 100 144 117 90 86 269 274 285 305 344 351 348 347 348 348 350 355 7 26 20 0 13 32 50 57 55 73 61 329 308 309 311 315 316 317 318 321 324 325 326 328 330 335 337 337 336 337 338 340 344 351 358 4 9 12 15 17 18
175 178 182 185 189 192 194 194 191 185 181 175 168 163 163 163 162 160 159 158 157 157 156 155 152 150 147 143 139 132 125 121 121 122 124 126 126 127 129 129 125 114 101 96 107 136 161 152 127 110 283 281 291 309 341 347 345 345 345 347 349 355 14 49 62 30 27 33 340 330 343 330 307 302 306 308 310 312 314 315 319 322 325 328 331 334 339 342 345 345 341 339 338 340 345 352 1 10 16 19 21 23 23
176 178 181 184 188 192 194 192 190 186 184 178 171 168 170 167 164 160 159 158 158 159 158 157 155 152 149 146 142 133 123 115 114 118 123 126 128 131 133 130 120 106 97 110 138 158 171 172 153 148 275 280 291 310 338 345 343 343 343 345 347 354 14 59 139 182 197 179 262 288 312 317 315 312 312 313 315 316 316 316 320 324 328 332 338 344 349 354 359 359 353 347 343 344 348 355 3 12 19 22 24 24 24
181 180 182 185 189 192 193 191 188 186 185 180 174 173 176 171 164 160 159 158 158 160 161 159 157 154 152 151 148 139 126 113 109 114 121 126 130 135 137 131 117 107 114 155 177 183 191 189 172 175 254 273 285 306 331 338 339 340 340 342 343 348 358 2 200 211 218 229 249 270 293 306 313 316 317 320 321 322 321 320 322 326 330 338 346 354 1 8 12 13 6 358 353 351 353 358 4 10 16 20 21 22 22
187 185 185 188 190 192 192 190 187 186 187 183 178 178 180 172 164 159 158 157 159 161 163 163 159 156 154 154 150 140 125 117 112 115 121 127 132 135 135 127 121 128 160 187 199 203 207 210 197 205 240 264 279 299 321 329 333 334 336 337 339 339 333 307 264 244 244 247 256 271 289 304 313 318 321 325 327 328 328 327 329 332 338 345 354 3 13 20 24 24 18 11 4 0 360 0 3 7 11 13 15 16 17
194 192 191 192 194 194 193 189 186 185 189 186 182 181 180 172 165 161 159 159 159 162 165 164 161 158 155 151 140 130 129 144 136 126 129 133 133 127 119 117 130 156 185 202 211 217 223 231 231 233 243 260 277 298 314 323 327 329 331 333 333 332 322 305 284 265 260 262 271 285 303 314 321 326 331 334 337 338 340 338 338 340 344 351 359 8 20 29 36 36 30 21 13 7 3 1 2 3 6 7 8 10 11
200 199 197 197 198 198 196 192 188 187 191 189 186 182 181 175 169 166 164 162 163 164 165 165 164 163 158 145 130 129 170 216 221 161 138 136 127 107 90 103 149 186 208 220 226 229 236 243 247 249 253 264 280 299 312 319 323 325 327 328 328 324 310 287 273 266 265 272 283 299 314 322 330 338 343 345 346 347 348 345 342 343 346 353 2 13 25 37 43 43 35 26 15 7 2 359 359 360 2 3 4 4 5
205 204 202 202 202 203 201 199 195 192 194 194 191 186 183 179 176 174 171 169 168 167 166 167 169 166 156 137 132 146 182 212 230 227 171 129 113 74 346 291 244 233 237 241 242 242 243 247 252 257 261 271 284 301 311 317 321 322 324 324 323 317 298 272 257 256 262 274 288 302 314 322 331 342 349 353 352 351 349 346 342 341 344 350 2 15 28 39 44 42 32 19 9 2 357 356 356 357 359 360 0 0 360
211 209 206 205 207 209 209 207 202 198 198 200 200 196 188 179 179 181 180 178 175 172 169 171 171 161 143 135 144 164 185 201 212 212 198 201 217 232 244 251 250 250 251 254 256 253 248 249 255 262 268 276 287 300 310 316 319 321 321 321 320 313 293 266 254 255 263 275 289 301 311 320 330 341 350 355 354 351 348 345 341 340 342 347 359 12 23 31 34 29 19 8 0 355 353 351 353 355 355 357 357 356 355
218 215 210 208 209 214 217 215 208 200 199 201 206 207 199 185 182 186 189 185 180 175 173 176 170 154 140 145 160 177 187 196 198 195 193 204 216 223 226 231 237 244 250 256 259 257 252 251 256 264 271 278 287 299 310 317 319 320 320 320 318 310 295 274 264 265 271 281 291 301 310 319 329 339 347 351 351 347 345 343 339 339 342 347 356 5 11 15 16 12 6 358 352 350 348 349 351 352 353 354 353 353 351
223 221 220 220 218 218 221 220 214 205 198 200 203 200 192 207 204 197 199 194 186 179 177 177 168 154 148 158 173 186 191 195 194 192 193 202 212 218 222 226 233 241 248 252 254 254 254 256 262 269 275 280 288 298 311 318 320 320 320 319 316 309 298 286 280 277 280 287 294 302 311 319 327 336 343 345 344 343 342 341 339 340 342 348 354 357 358 358 358 356 353 349 347 346 345 346 348 349 350 350 350 348 348
221 219 227 238 238 232 225 221 222 220 209 205 199 187 173 211 226 221 212 206 197 188 184 178 170 162 161 169 181 192 196 198 198 198 200 205 211 217 221 226 233 240 245 247 247 248 253 258 264 272 278 284 290 299 311 317 320 320 319 317 313 308 300 292 286 285 287 290 296 302 309 316 324 331 337 340 341 341 340 341 340 343 345 348 349 349 347 346 345 346 344 343 343 343 344 344 346 346 346 345 346 345 344
216 210 211 230 241 240 230 217 219 227 226 215 204 188 176 202 224 231 224 217 208 201 195 188 180 175 175 179 187 196 200 201 203 205 207 209 213 217 223 228 233 239 244 244 243 245 248 253 257 266 276 284 290 297 308 314 317 318 316 313 309 305 299 292 287 286 287 291 295 300 306 312 318 326 332 336 338 339 339 340 341 342 346 345 345 343 340 337 338 339 339 339 340 341 342 343 343 343 343 342 342 342 341
214 207 202 211 226 234 231 218 213 221 230 223 212 198 186 198 217 229 227 222 214 206 203 200 195 190 188 190 195 200 203 204 206 209 211 212 214 218 223 227 233 239 242 243 244 245 247 249 253 261 272 281 288 295 303 309 313 314 313 309 305 301 296 290 286 283 285 287 292 296 301 306 313 320 327 333 334 336 336 336 335 338 340 342 341 339 336 335 335 335 337 337 338 340 342 343 342 342 340 339 339 339 339
217 211 205 207 215 225 229 222 216 219 228 227 219 208 199 201 213 225 230 227 219 210 205 205 205 202 199 199 202 205 207 207 209 212 213 212 213 216 220 225 232 237 242 244 246 247 248 251 255 261 270 279 286 292 298 303 308 310 310 307 302 297 293 287 283 281 281 282 287 291 295 300 306 314 322 327 330 330 330 329 327 331 335 337 339 339 337 334 333 334 335 336 337 338 341 342 342 340 339 338 338 338 337
221 216 212 210 214 221 227 226 221 221 226 229 225 217 211 209 214 223 230 231 226 217 210 210 211 211 208 206 208 210 211 209 211 213 214 212 212 214 218 223 230 237 242 244 244 244 248 251 255 260 268 277 285 290 294 298 302 307 308 305 300 294 289 284 279 276 274 276 279 283 287 293 298 306 313 318 321 321 322 320 322 326 329 334 337 337 337 334 332 332 333 333 334 335 337 340 341 340 339 338 337 337 337
225 222 218 215 216 220 226 228 226 225 226 230 229 224 219 216 217 222 229 233 232 225 218 216 217 217 215 212 213 215 216 213 212 214 216 215 214 215 218 223 230 237 242 243 241 240 243 248 252 258 266 278 286 291 293 294 298 304 306 303 298 292 286 280 276 272 270 270 272 275 280 285 290 297 303 307 308 306 304 303 310 318 325 329 333 335 336 335 333 332 331 330 329 330 332 337 338 339 338 336 336 335 336
229 228 224 221 220 222 227 230 230 229 228 230 231 230 226 222 221 222 226 232 234 230 224 221 221 221 220 216 216 219 221 216 214 215 217 217 217 217 219 224 231 237 241 242 240 238 240 245 251 257 266 278 286 290 292 294 298 304 305 301 296 290 284 278 273 270 267 265 266 269 273 277 282 287 291 293 290 286 282 283 293 306 316 322 327 331 332 332 331 330 328 326 324 323 324 329 334 335 335 334 333 333 333
234 233 231 228 225 225 229 232 234 234 233 233 234 234 232 229 225 223 225 230 233 233 228 224 223 223 222 220 221 223 224 220 217 217 220 220 220 220 221 226 231 236 240 244 243 241 242 246 252 258 266 277 284 288 290 295 300 305 303 298 293 287 282 277 273 269 266 264 263 264 267 271 275 278 280 280 276 271 268 271 281 293 305 314 320 324 327 328 327 326 325 323 320 318 319 321 326 331 332 331 330 331 330
237 237 237 234 231 229 231 234 237 238 238 238 238 238 237 234 230 226 225 228 231 233 231 227 225 225 225 225 226 227 228 224 220 219 222 223 224 224 224 228 231 234 239 244 247 247 248 251 255 260 266 274 280 285 289 295 301 304 301 294 289 284 280 275 272 269 265 262 261 261 262 265 268 271 271 269 264 260 258 261 269 280 293 304 312 317 320 321 322 321 321 320 318 316 315 317 321 326 328 329 328 328 328
239 239 238 238 235 233 233 235 238 240 241 242 242 241 239 237 234 230 227 227 230 232 233 230 228 228 228 229 231 231 231 227 224 223 224 226 228 228 228 230 231 233 238 244 248 251 254 256 258 261 266 272 278 283 289 295 300 301 297 291 285 281 278 275 271 268 265 261 259 258 259 260 263 264 263 260 255 251 250 254 261 271 283 295 304 311 315 316 316 317 317 317 316 314 313 314 317 321 325 327 327 326 325
240 239 239 238 238 236 235 236 238 240 241 243 244 244 241 238 237 234 230 228 229 231 233 233 232 232 232 233 235 236 235 232 228 226 226 229 231 233 233 234 234 235 238 243 248 253 258 260 261 263 267 271 277 282 289 295 298 297 293 289 283 279 276 274 271 268 264 260 258 257 256 257 257 257 256 253 249 246 246 250 256 266 277 289 299 306 309 311 313 313 313 314 313 312 312 312 314 316 320 323 324 324 323
239 238 238 237 236 236 236 237 238 239 240 242 244 245 243 239 237 236 233 230 229 231 233 234 235 236 236 237 238 239 238 235 232 230 230 232 234 236 237 238 238 239 240 242 246 251 257 260 262 264 267 271 276 282 289 294 295 294 292 289 285 279 275 272 269 266 263 259 257 256 255 254 253 252 250 247 245 244 244 247 253 260 271 283 293 301 305 308 309 310 310 311 312 311 310 310 311 314 316 319 321 322 321
237 237 236 236 235 235 235 236 237 238 239 240 242 244 243 240 237 235 234 231 230 231 233 236 238 239 240 240 241 240 239 237 234 233 233 234 237 238 239 241 242 242 243 244 246 250 255 259 262 264 266 270 275 281 287 291 291 291 292 292 289 284 278 273 268 264 261 258 256 254 254 252 251 248 246 244 243 242 243 246 250 256 265 277 288 296 301 304 305 306 307 308 309 310 310 310 311 312 314 316 318 319 318
236 235 234 234 234 233 232 233 235 237 238 239 241 243 243 240 237 235 235 233 230 231 235 239 241 242 244 245 244 243 241 239 236 234 234 236 238 240 241 242 244 245 246 246 247 250 254 258 261 264 265 269 274 280 285 287 287 288 290 292 291 288 285 280 274 266 260 256 254 253 253 251 249 246 243 242 241 242 243 245 248 253 261 271 281 289 295 299 301 302 303 304 306 307 308 309 310 312 313 315 317 317 317
235 232 232 232 232 231 229 230 232 235 237 238 240 241 242 240 239 237 236 234 232 232 235 241 244 246 247 248 247 246 244 241 238 236 236 238 240 242 242 243 244 246 247 248 249 250 254 257 260 262 264 268 273 278 282 283 285 286 288 289 289 289 288 286 281 273 264 257 253 252 252 250 247 244 242 241 241 241 243 244 247 251 257 265 274 282 289 293 296 297 299 300 302 304 306 307 308 310 312 314 315 316 316
238 233 230 229 229 229 228 227 230 234 237 238 239 240 241 241 240 239 237 236 234 234 236 241 245 248 248 248 248 247 245 243 240 238 238 239 241 243 244 244 245 246 248 249 250 251 253 256 259 261 263 267 272 276 279 281 282 284 286 286 286 286 287 286 282 277 269 260 253 250 250 248 246 243 241 241 241 242 243 244 246 250 254 261 269 276 283 288 292 294 295 297 298 300 302 303 304 307 309 311 313 315 315
242 236 231 228 228 228 227 226 228 231 235 237 238 239 240 241 240 238 237 238 237 236 237 241 246 248 249 248 248 247 246 245 243 241 239 240 241 244 246 246 246 247 248 249 250 251 253 255 257 260 263 266 270 274 276 278 280 282 283 283 283 283 283 282 280 277 274 266 257 250 248 247 245 243 241 241 241 242 243 244 246 249 252 258 264 271 278 283 287 290 292 293 294 296 298 299 301 303 305 308 310 311 312
243 239 233 229 228 227 227 226 227 229 233 235 236 237 239 240 239 238 237 239 239 238 238 241 245 248 249 249 249 249 249 248 246 243 241 240 242 244 246 248 248 248 248 249 250 252 254 255 257 260 262 265 268 271 274 276 278 280 281 281 281 280 279 276 275 275 274 270 262 252 246 245 244 243 242 241 241 242 243 244 246 248 251 256 261 267 273 279 283 286 288 289 291 292 294 295 296 298 301 303 305 307 308
242 240 236 232 229 228 228 227 227 228 231 233 235 236 237 238 238 238 237 238 239 240 239 240 243 246 248 249 250 250 250 250 248 245 243 241 241 243 246 248 249 249 249 249 251 253 255 256 258 260 262 264 266 269 272 274 276 278 279 280 280 279 277 273 271 270 270 270 265 256 246 243 243 243 242 241 241 242 243 244 246 248 251 255 260 265 271 276 280 283 285 286 288 289 290 291 293 294 296 298 300 302 304
240 240 238 235 232 230 229 228 227 228 229 231 233 235 236 238 238 239 239 239 240 239 239 239 240 242 243 244 246 247 247 247 247 245 242 240 240 241 244 247 249 250 250 250 252 254 256 258 259 260 262 263 265 267 270 272 274 276 277 279 279 279 276 272 269 267 266 267 265 259 249 244 242 243 242 242 242 243 243 244 246 248 251 255 259 263 268 273 277 280 282 283 285 285 286 288 289 290 291 292 294 296 298
238 240 241 239 236 233 231 229 228 228 230 231 233 235 237 240 241 242 243 243 242 241 239 238 239 240 239 238 239 241 242 244 244 244 240 238 237 239 241 244 247 249 250 251 253 255 257 259 260 261 261 262 263 265 267 269 271 273 275 277 278 277 276 273 269 265 263 264 263 260 253 246 242 242 242 242 243 243 244 245 247 249 252 255 258 262 266 270 274 277 279 280 281 282 283 284 285 286 287 288 289 291 293
237 239 241 241 238 235 232 230 229 229 231 233 236 239 242 243 245 246 247 247 245 243 240 238 239 239 238 235 235 236 237 239 242 243 241 236 233 235 239 242 245 247 250 251 253 255 257 259 260 261 261 262 263 264 265 267 269 271 273 275 276 276 275 273 270 265 262 261 260 259 254 249 244 243 242 242 242 243 243 245 247 249 252 255 258 261 263 267 270 272 274 275 276 278 279 281 282 283 284 285 286 287 289
235 237 239 239 238 236 234 231 230 230 233 236 240 243 245 245 246 246 246 245 244 241 237 236 238 240 239 237 235 234 234 235 239 241 239 237 233 231 233 238 243 246 248 250 251 253 255 257 259 260 261 262 262 263 264 265 267 269 270 272 274 275 275 274 271 267 262 260 259 257 254 251 248 246 244 244 244 244 243 243 244 247 250 253 256 259 262 265 267 269 270 271 272 273 275 277 279 281 282 283 284 284 286
234 235 237 238 238 237 235 233 231 231 234 238 242 244 245 244 244 244 242 241 239 237 234 232 235 239 241 239 238 236 235 236 239 240 235 237 238 236 234 237 241 243 245 248 249 251 253 255 257 259 260 261 262 262 263 264 265 266 268 270 272 273 274 273 271 268 264 260 258 256 253 251 249 248 248 247 247 248 248 246 244 245 247 250 253 256 259 262 264 266 267 268 269 270 272 275 277 279 280 281 282 283 284
233 234 235 236 237 237 237 235 232 232 234 237 240 243 244 243 242 241 240 238 236 235 234 233 234 238 241 241 240 239 237 238 242 244 241 241 241 242 240 239 236 236 241 245 249 252 253 254 256 257 259 260 261 261 262 262 263 264 266 268 269 270 271 271 271 269 265 261 258 256 253 250 249 248 249 249 249 251 252 252 251 249 248 248 250 253 255 257 260 262 265 266 268 269 271 274 276 277 278 279 280 281 283
233 233 234 235 236 237 237 235 233 233 234 236 239 242 243 243 241 240 239 237 235 234 235 237 237 238 239 240 240 239 239 240 244 248 249 245 240 236 234 231 229 231 238 242 249 254 254 254 254 255 257 258 258 258 258 259 260 262 263 265 266 267 268 269 269 268 266 263 260 257 254 251 249 248 248 249 250 251 253 255 256 256 255 255 254 254 254 255 257 260 262 265 267 269 271 274 276 277 277 277 278 279 281
235 234 233 234 234 235 236 235 234 233 234 236 240 243 244 245 243 241 239 236 233 231 232 236 239 240 239 240 240 240 241 243 246 248 249 247 239 230 224 226 230 234 237 237 241 250 254 254 255 255 255 255 254 254 254 255 257 259 260 262 262 263 264 266 267 267 266 265 264 261 258 254 251 249 249 249 250 251 252 254 256 258 260 261 261 261 260 260 260 261 263 265 267 269 271 273 275 275 275 276 276 278 280
238 236 234 234 234 234 234 234 233 232 232 235 239 242 245 246 246 245 242 239 235 233 232 234 238 241 241 242 243 244 244 246 247 248 248 248 245 238 229 228 228 228 227 229 233 240 250 254 256 254 251 249 248 248 250 252 254 256 257 258 259 260 261 262 264 265 266 267 267 265 262 258 255 251 250 250 251 252 252 253 255 257 259 262 264 266 267 267 266 265 265 266 268 270 271 273 273 273 273 273 274 276 278
243 239 236 234 234 234 234 234 233 231 230 232 236 240 244 246 248 248 246 244 240 236 232 234 238 242 245 245 245 246 247 247 249 250 249 248 249 248 242 233 222 216 221 226 231 237 244 247 248 248 246 245 243 243 248 252 254 255 255 255 257 258 259 260 262 264 266 267 267 267 265 263 259 256 253 252 252 252 253 254 256 257 259 260 263 266 268 269 268 268 268 269 271 271 272 271 271 270 271 271 273 275 276
249 245 241 238 235 234 234 234 233 231 229 230 233 238 242 246 248 248 248 246 243 239 236 236 238 243 247 248 247 246 246 247 249 251 251 250 249 249 245 240 234 229 228 230 234 237 238 239 237 235 242 245 243 242 246 249 251 252 252 252 253 255 256 258 260 262 264 265 265 265 265 265 263 260 257 255 254 254 254 255 257 258 259 260 262 264 266 266 267 268 269 270 272 271 270 269 269 269 270 271 273 275 276
254 251 247 243 239 236 234 235 235 234 233 232 233 237 241 244 246 248 248 247 245 242 239 237 238 241 245 247 246 245 245 246 248 250 252 251 249 247 245 243 243 242 239 238 240 240 234 231 228 228 235 239 241 241 240 241 243 245 246 248 249 251 253 256 258 260 262 262 262 263 263 264 264 263 261 259 257 256 256 256 258 259 260 261 262 263 264 264 266 267 269 270 270 270 269 269 269 270 272 273 275 275 276
255 254 252 248 244 239 237 236 237 238 238 236 236 238 240 244 247 249 250 249 247 244 241 237 237 240 242 243 243 242 243 246 249 250 249 248 247 247 247 244 242 241 241 241 241 240 237 229 226 228 230 224 227 234 237 235 236 238 241 244 246 249 251 253 256 258 260 260 260 260 260 261 263 264 263 262 260 259 258 258 258 259 260 260 261 262 263 265 267 268 270 270 270 270 270 271 272 274 275 276 276 276 276
255 255 254 252 248 244 241 239 239 240 242 241 240 240 242 245 249 251 252 250 248 245 241 238 238 239 241 241 241 242 243 246 249 250 247 244 245 248 248 244 241 241 240 238 236 237 238 237 234 230 226 224 222 224 230 235 236 236 237 240 243 246 249 252 254 256 257 258 258 257 257 259 261 262 263 263 263 262 261 260 260 260 260 260 261 261 263 265 268 269 270 271 271 271 273 274 276 278 278 278 277 277 276
253 254 254 253 251 248 244 242 241 242 244 244 243 243 245 248 251 253 253 251 248 245 242 239 238 238 239 240 241 243 245 246 247 247 247 246 248 250 249 244 242 242 239 236 234 233 234 235 237 236 231 230 230 228 227 231 235 236 236 238 241 243 247 250 252 253 254 255 255 255 255 256 258 260 262 263 264 264 263 263 262 262 261 261 261 261 263 265 267 269 270 271 272 273 275 278 280 281 281 280 279 279 279